User: anonymous   Login
Location: Unspecified
(0.0000°N, 0.0000°E)
Time: 11:40:32
(UTC+02:00)
Language:

AO-40 - Orbit

View from above orbital plane
View from above orbital plane
View from above satellite
View from above satellite

Ground track
Ground track

The orbit data is extracted from the following two-line orbital elements,

1 26609U 00072B   16236.10496319 -.00000246  00000-0  00000+0 0  9995
2 26609   7.5345 286.9483 7973892  12.1588 359.4344  1.25587822 72594
Epoch (UTC): 23 August 2016 02:31:08
Eccentricity: 0.7973892
inclination: 7.5345°
perigee height: 974 km
apogee height: 58846 km
right ascension of ascending node: 286.9483°
argument of perigee: 12.1588°
revolutions per day: 1.25587822
mean anomaly at epoch: 359.4344°
orbit number at epoch: 7259

The dashed part of the orbit path shows where the satellite is in the earth's shadow,  

DLR